Time,TemperatureF,DewpointF,PressureIn,WindDirection,WindDirectionDegrees,WindSpeedMPH,WindSpeedGustMPH,Humidity,HourlyPrecipIn,Conditions,Clouds,dailyrainin,SoftwareType,DateUTC
2013-03-26 00:04:00,22.3,11.2,30.36,NNW,338,0.0,0.0,62,0.00,,---,0.00,VWS V14.01,2013-03-26 05:04:00,
2013-03-26 00:09:00,22.5,11.8,30.36,NW,315,0.0,0.0,63,0.00,,---,0.00,VWS V14.01,2013-03-26 05:09:00,
2013-03-26 00:14:00,22.5,11.8,30.36,NW,315,0.0,0.0,63,0.00,,---,0.00,VWS V14.01,2013-03-26 05:14:00,
2013-03-26 00:19:00,22.6,12.0,30.36,NW,315,0.0,0.0,63,0.00,,---,0.00,VWS V14.01,2013-03-26 05:19:00,
2013-03-26 00:24:00,22.8,12.5,30.36,NW,315,0.0,0.0,64,0.00,,---,0.00,VWS V14.01,2013-03-26 05:24:00,
2013-03-26 00:29:00,22.5,12.1,30.36,NW,315,0.0,0.0,64,0.00,,---,0.00,VWS V14.01,2013-03-26 05:29:00,
2013-03-26 00:35:00,22.3,11.6,30.36,NW,315,0.0,0.0,63,0.00,,---,0.00,VWS V14.01,2013-03-26 05:35:00,
2013-03-26 00:40:00,22.1,11.4,30.36,NW,315,0.0,0.0,63,0.00,,---,0.00,VWS V14.01,2013-03-26 05:40:00,
2013-03-26 00:45:00,22.1,11.4,30.39,NW,315,0.0,0.0,63,0.00,,---,0.00,VWS V14.01,2013-03-26 05:45:00,
2013-03-26 00:50:00,21.7,11.1,30.39,NW,315,0.0,0.0,63,0.00,,---,0.00,VWS V14.01,2013-03-26 05:50:00,
2013-03-26 00:55:00,21.7,11.4,30.39,NW,315,0.0,0.0,64,0.00,,---,0.00,VWS V14.01,2013-03-26 05:55:00,
2013-03-26 01:00:00,21.4,10.8,30.39,NW,315,0.0,0.0,63,0.00,,---,0.00,VWS V14.01,2013-03-26 06:00:00,
2013-03-26 01:06:00,21.6,11.3,30.39,NW,315,0.0,0.0,64,0.00,,---,0.00,VWS V14.01,2013-03-26 06:06:00,
2013-03-26 01:11:00,21.6,11.6,30.39,NW,315,0.0,0.0,65,0.00,,---,0.00,VWS V14.01,2013-03-26 06:11:00,
2013-03-26 01:16:00,21.7,12.1,30.39,WNW,292,0.0,0.0,66,0.00,,---,0.00,VWS V14.01,2013-03-26 06:16:00,
2013-03-26 01:22:00,21.7,12.1,30.39,NW,315,0.0,0.0,66,0.00,,---,0.00,VWS V14.01,2013-03-26 06:22:00,
2013-03-26 01:27:00,21.9,12.7,30.39,NW,315,0.0,2.5,67,0.00,,---,0.00,VWS V14.01,2013-03-26 06:27:00,
2013-03-26 01:32:00,22.1,12.8,30.39,NNW,338,0.0,0.0,67,0.00,,---,0.00,VWS V14.01,2013-03-26 06:32:00,
2013-03-26 01:37:00,21.9,12.7,30.39,NW,315,0.0,0.0,67,0.00,,---,0.00,VWS V14.01,2013-03-26 06:37:00,
2013-03-26 01:42:00,22.3,13.0,30.39,NW,315,0.0,2.5,67,0.00,,---,0.00,VWS V14.01,2013-03-26 06:42:00,
2013-03-26 01:47:00,22.3,13.0,30.39,NW,315,1.6,2.7,67,0.00,,---,0.00,VWS V14.01,2013-03-26 06:47:00,
2013-03-26 01:52:00,22.1,12.5,30.39,NW,315,0.0,0.0,66,0.00,,---,0.00,VWS V14.01,2013-03-26 06:52:00,
2013-03-26 01:58:00,21.9,12.3,30.39,NW,315,0.0,0.0,66,0.00,,---,0.00,VWS V14.01,2013-03-26 06:58:00,
2013-03-26 02:03:00,21.7,11.8,30.39,NW,315,0.0,0.0,65,0.00,,---,0.00,VWS V14.01,2013-03-26 07:03:00,
2013-03-26 02:08:00,21.7,11.8,30.39,NW,315,0.0,0.0,65,0.00,,---,0.00,VWS V14.01,2013-03-26 07:08:00,
2013-03-26 02:13:00,21.4,11.5,30.39,NW,315,0.0,0.0,65,0.00,,---,0.00,VWS V14.01,2013-03-26 07:13:00,
2013-03-26 02:18:00,21.2,11.3,30.39,NW,315,0.0,0.0,65,0.00,,---,0.00,VWS V14.01,2013-03-26 07:18:00,
2013-03-26 02:23:00,21.0,11.1,30.39,NW,315,0.0,0.0,65,0.00,,---,0.00,VWS V14.01,2013-03-26 07:23:00,
2013-03-26 02:28:00,20.7,10.8,30.39,NW,315,0.0,0.0,65,0.00,,---,0.00,VWS V14.01,2013-03-26 07:28:00,
2013-03-26 02:33:00,20.8,11.3,30.39,NW,315,0.0,0.0,66,0.00,,---,0.00,VWS V14.01,2013-03-26 07:33:00,
2013-03-26 02:38:00,20.8,11.6,30.39,NW,315,0.0,0.0,67,0.00,,---,0.00,VWS V14.01,2013-03-26 07:38:00,
2013-03-26 02:43:00,21.0,12.5,30.39,NW,315,0.0,0.0,69,0.00,,---,0.00,VWS V14.01,2013-03-26 07:43:00,
2013-03-26 02:48:00,21.0,13.1,30.39,NW,315,1.1,2.2,71,0.00,,---,0.00,VWS V14.01,2013-03-26 07:48:00,
2013-03-26 02:54:00,21.0,12.8,30.39,NW,315,0.0,1.3,70,0.00,,---,0.00,VWS V14.01,2013-03-26 07:54:00,
2013-03-26 02:59:00,20.8,12.6,30.36,NW,315,0.0,0.0,70,0.00,,---,0.00,VWS V14.01,2013-03-26 07:59:00,
2013-03-26 03:04:00,20.5,11.9,30.36,NW,315,0.0,0.0,69,0.00,,---,0.00,VWS V14.01,2013-03-26 08:04:00,
2013-03-26 03:09:00,20.3,11.8,30.36,NW,315,0.0,0.0,69,0.00,,---,0.00,VWS V14.01,2013-03-26 08:09:00,
2013-03-26 03:14:00,20.1,11.6,30.39,NW,315,0.0,0.0,69,0.00,,---,0.00,VWS V14.01,2013-03-26 08:14:00,
2013-03-26 03:19:00,20.1,11.6,30.39,NW,315,0.0,0.0,69,0.00,,---,0.00,VWS V14.01,2013-03-26 08:19:00,
2013-03-26 03:24:00,20.3,12.4,30.39,NNW,338,0.0,0.0,71,0.00,,---,0.00,VWS V14.01,2013-03-26 08:24:00,
2013-03-26 03:29:00,20.5,13.2,30.36,North,0,0.0,0.0,73,0.00,,---,0.00,VWS V14.01,2013-03-26 08:29:00,
2013-03-26 03:34:00,20.8,13.9,30.36,NW,315,2.5,2.5,74,0.00,,---,0.00,VWS V14.01,2013-03-26 08:34:00,
2013-03-26 03:39:00,20.8,13.9,30.36,NNW,338,0.0,2.0,74,0.00,,---,0.00,VWS V14.01,2013-03-26 08:39:00,
2013-03-26 03:44:00,20.8,13.9,30.36,NNW,338,2.7,2.7,74,0.00,,---,0.00,VWS V14.01,2013-03-26 08:44:00,
2013-03-26 03:49:00,20.8,13.9,30.36,North,0,2.9,2.9,74,0.00,,---,0.00,VWS V14.01,2013-03-26 08:49:00,
2013-03-26 03:54:00,20.8,13.9,30.36,NW,315,0.0,1.1,74,0.00,,---,0.00,VWS V14.01,2013-03-26 08:54:00,
2013-03-26 03:59:00,21.0,14.1,30.39,NNW,338,0.0,1.1,74,0.00,,---,0.00,VWS V14.01,2013-03-26 08:59:00,
2013-03-26 04:04:00,20.8,13.6,30.39,NNW,338,0.0,2.0,73,0.00,,---,0.00,VWS V14.01,2013-03-26 09:04:00,
2013-03-26 04:09:00,20.8,13.6,30.39,North,0,2.2,2.2,73,0.00,,---,0.00,VWS V14.01,2013-03-26 09:09:00,
2013-03-26 04:14:00,20.7,13.4,30.39,NNE,22,0.0,0.0,73,0.00,,---,0.00,VWS V14.01,2013-03-26 09:14:00,
2013-03-26 04:19:00,20.7,13.7,30.39,NNW,338,2.9,2.9,74,0.00,,---,0.00,VWS V14.01,2013-03-26 09:19:00,
2013-03-26 04:24:00,20.5,13.5,30.39,NNE,22,0.0,0.0,74,0.00,,---,0.00,VWS V14.01,2013-03-26 09:24:00,
2013-03-26 04:29:00,20.3,13.0,30.39,North,0,0.0,0.0,73,0.00,,---,0.00,VWS V14.01,2013-03-26 09:29:00,
2013-03-26 04:34:00,20.1,12.9,30.39,NW,315,0.0,2.0,73,0.00,,---,0.00,VWS V14.01,2013-03-26 09:34:00,
2013-03-26 04:39:00,19.9,12.7,30.39,NW,315,0.0,0.0,73,0.00,,---,0.00,VWS V14.01,2013-03-26 09:39:00,
2013-03-26 04:44:00,19.6,12.4,30.36,NW,315,0.0,0.0,73,0.00,,---,0.00,VWS V14.01,2013-03-26 09:44:00,
2013-03-26 04:49:00,19.4,12.2,30.36,NW,315,0.0,0.0,73,0.00,,---,0.00,VWS V14.01,2013-03-26 09:49:00,
2013-03-26 04:54:00,19.0,12.1,30.36,NW,315,0.0,0.0,74,0.00,,---,0.00,VWS V14.01,2013-03-26 09:54:00,
2013-03-26 04:59:00,18.5,11.3,30.39,NW,315,0.0,0.0,73,0.00,,---,0.00,VWS V14.01,2013-03-26 09:59:00,
2013-03-26 05:04:00,18.0,10.8,30.39,NW,315,0.0,0.0,73,0.00,,---,0.00,VWS V14.01,2013-03-26 10:04:00,
2013-03-26 05:09:00,17.6,10.7,30.39,NW,315,0.0,0.0,74,0.00,,---,0.00,VWS V14.01,2013-03-26 10:09:00,
2013-03-26 05:14:00,17.6,10.7,30.36,NW,315,0.0,0.0,74,0.00,,---,0.00,VWS V14.01,2013-03-26 10:14:00,
2013-03-26 05:19:00,17.4,10.9,30.36,NW,315,0.0,0.0,75,0.00,,---,0.00,VWS V14.01,2013-03-26 10:19:00,
2013-03-26 05:24:00,17.6,11.0,30.36,NW,315,0.0,0.0,75,0.00,,---,0.00,VWS V14.01,2013-03-26 10:24:00,
2013-03-26 05:29:00,17.4,11.2,30.39,NW,315,0.0,0.0,76,0.00,,---,0.00,VWS V14.01,2013-03-26 10:29:00,
2013-03-26 05:34:00,17.4,11.2,30.39,WNW,292,1.3,1.3,76,0.00,,---,0.00,VWS V14.01,2013-03-26 10:34:00,
2013-03-26 05:39:00,17.8,12.4,30.39,West,270,0.0,0.0,79,0.00,,---,0.00,VWS V14.01,2013-03-26 10:39:00,
2013-03-26 05:44:00,17.6,12.8,30.39,West,270,0.0,0.0,81,0.00,,---,0.00,VWS V14.01,2013-03-26 10:44:00,
2013-03-26 05:49:00,17.6,12.8,30.39,West,270,0.0,0.0,81,0.00,,---,0.00,VWS V14.01,2013-03-26 10:49:00,
2013-03-26 05:54:00,17.4,12.6,30.39,West,270,0.0,0.0,81,0.00,,---,0.00,VWS V14.01,2013-03-26 10:54:00,
2013-03-26 05:59:00,16.9,11.8,30.41,West,270,0.0,0.0,80,0.00,,---,0.00,VWS V14.01,2013-03-26 10:59:00,
2013-03-26 06:04:00,16.7,11.6,30.41,West,270,0.0,0.0,80,0.00,,---,0.00,VWS V14.01,2013-03-26 11:04:00,
2013-03-26 06:09:00,16.5,11.2,30.41,West,270,0.0,0.0,79,0.00,,---,0.00,VWS V14.01,2013-03-26 11:09:00,
2013-03-26 06:15:00,16.5,11.2,30.41,West,270,0.0,0.0,79,0.00,,---,0.00,VWS V14.01,2013-03-26 11:15:00,
2013-03-26 06:20:00,16.5,11.2,30.41,West,270,0.0,0.0,79,0.00,,---,0.00,VWS V14.01,2013-03-26 11:20:00,
2013-03-26 06:25:00,16.0,10.6,30.41,West,270,0.0,0.0,79,0.00,,---,0.00,VWS V14.01,2013-03-26 11:25:00,
2013-03-26 06:30:00,16.5,11.2,30.41,West,270,0.0,0.0,79,0.00,,---,0.00,VWS V14.01,2013-03-26 11:30:00,
2013-03-26 06:36:00,16.2,11.1,30.41,West,270,0.0,0.0,80,0.00,,---,0.00,VWS V14.01,2013-03-26 11:36:00,
2013-03-26 06:41:00,16.0,10.6,30.44,West,270,0.0,0.0,79,0.00,,---,0.00,VWS V14.01,2013-03-26 11:41:00,
2013-03-26 06:47:00,16.0,10.6,30.44,West,270,0.0,0.0,79,0.00,,---,0.00,VWS V14.01,2013-03-26 11:47:00,
2013-03-26 06:52:00,15.8,10.7,30.44,West,270,0.0,0.0,80,0.00,,---,0.00,VWS V14.01,2013-03-26 11:52:00,
2013-03-26 06:58:00,15.4,10.4,30.44,West,270,0.0,0.0,80,0.00,,---,0.00,VWS V14.01,2013-03-26 11:58:00,
2013-03-26 07:03:00,15.1,10.0,30.44,West,270,0.0,0.0,80,0.00,,---,0.00,VWS V14.01,2013-03-26 12:03:00,
2013-03-26 07:09:00,14.9,9.6,30.44,West,270,0.0,0.0,79,0.00,,---,0.00,VWS V14.01,2013-03-26 12:09:00,
2013-03-26 07:14:00,14.9,9.9,30.44,West,270,0.0,0.0,80,0.00,,---,0.00,VWS V14.01,2013-03-26 12:14:00,
2013-03-26 07:20:00,15.1,10.0,30.44,West,270,0.0,0.0,80,0.00,,---,0.00,VWS V14.01,2013-03-26 12:20:00,
2013-03-26 07:25:00,15.1,10.0,30.44,West,270,0.0,0.0,80,0.00,,---,0.00,VWS V14.01,2013-03-26 12:25:00,
2013-03-26 07:30:00,14.9,9.9,30.44,West,270,0.0,0.0,80,0.00,,---,0.00,VWS V14.01,2013-03-26 12:30:00,
2013-03-26 07:35:00,15.4,10.4,30.44,West,270,0.0,0.0,80,0.00,,---,0.00,VWS V14.01,2013-03-26 12:35:00,
2013-03-26 07:40:00,15.8,11.0,30.44,West,270,0.0,0.0,81,0.00,,---,0.00,VWS V14.01,2013-03-26 12:40:00,
2013-03-26 07:45:00,16.3,11.5,30.44,West,270,0.0,0.0,81,0.00,,---,0.00,VWS V14.01,2013-03-26 12:45:00,
2013-03-26 07:50:00,16.9,12.1,30.44,West,270,0.0,0.0,81,0.00,,---,0.00,VWS V14.01,2013-03-26 12:50:00,
2013-03-26 07:55:00,18.1,13.3,30.44,West,270,0.0,0.0,81,0.00,,---,0.00,VWS V14.01,2013-03-26 12:55:00,
2013-03-26 08:00:00,19.8,15.2,30.44,West,270,0.0,0.0,82,0.00,,---,0.00,VWS V14.01,2013-03-26 13:00:00,
2013-03-26 08:05:00,21.0,17.0,30.44,West,270,0.0,0.0,84,0.00,,---,0.00,VWS V14.01,2013-03-26 13:05:00,
2013-03-26 08:10:00,21.9,18.1,30.44,West,270,0.0,0.0,85,0.00,,---,0.00,VWS V14.01,2013-03-26 13:10:00,
2013-03-26 08:15:00,22.8,19.3,30.47,WNW,292,0.0,0.0,86,0.00,,---,0.00,VWS V14.01,2013-03-26 13:15:00,
2013-03-26 08:22:00,24.3,19.9,30.47,WNW,292,0.0,0.0,83,0.00,,---,0.00,VWS V14.01,2013-03-26 13:22:00,
2013-03-26 08:27:00,25.5,21.1,30.44,NW,315,0.0,0.0,83,0.00,,---,0.00,VWS V14.01,2013-03-26 13:27:00,
2013-03-26 08:32:00,26.6,21.6,30.44,NW,315,0.0,0.0,81,0.00,,---,0.00,VWS V14.01,2013-03-26 13:32:00,
2013-03-26 08:37:00,27.9,22.5,30.44,NW,315,0.0,0.0,80,0.00,,---,0.00,VWS V14.01,2013-03-26 13:37:00,
2013-03-26 08:42:00,28.8,22.8,30.44,NNE,22,1.3,1.6,78,0.00,,---,0.00,VWS V14.01,2013-03-26 13:42:00,
2013-03-26 08:47:00,28.9,21.4,30.44,NNE,22,0.0,0.0,73,0.00,,---,0.00,VWS V14.01,2013-03-26 13:47:00,
2013-03-26 08:52:00,29.5,19.9,30.44,NE,45,0.0,0.0,67,0.00,,---,0.00,VWS V14.01,2013-03-26 13:52:00,
2013-03-26 08:57:00,30.2,19.9,30.44,NE,45,0.0,0.0,65,0.00,,---,0.00,VWS V14.01,2013-03-26 13:57:00,
2013-03-26 09:02:00,31.5,21.1,30.44,NE,45,0.0,0.0,65,0.00,,---,0.00,VWS V14.01,2013-03-26 14:02:00,
2013-03-26 09:07:00,33.1,22.6,30.44,NE,45,0.0,0.0,65,0.00,,---,0.00,VWS V14.01,2013-03-26 14:07:00,
2013-03-26 09:12:00,33.8,21.0,30.44,NE,45,0.0,0.0,59,0.00,,---,0.00,VWS V14.01,2013-03-26 14:12:00,
2013-03-26 09:17:00,34.7,22.2,30.44,ENE,68,0.0,0.0,60,0.00,,---,0.00,VWS V14.01,2013-03-26 14:17:00,
2013-03-26 09:22:00,35.6,20.6,30.44,ENE,68,0.0,0.0,54,0.00,,---,0.00,VWS V14.01,2013-03-26 14:22:00,
2013-03-26 09:27:00,36.1,20.2,30.44,ENE,68,0.0,0.0,52,0.00,,---,0.00,VWS V14.01,2013-03-26 14:27:00,
2013-03-26 09:32:00,36.1,19.8,30.44,South,180,0.0,0.0,51,0.00,,---,0.00,VWS V14.01,2013-03-26 14:32:00,
2013-03-26 09:37:00,36.7,20.3,30.44,South,180,0.0,0.0,51,0.00,,---,0.00,VWS V14.01,2013-03-26 14:37:00,
2013-03-26 09:42:00,37.8,20.8,30.44,South,180,0.0,0.0,50,0.00,,---,0.00,VWS V14.01,2013-03-26 14:42:00,
2013-03-26 09:47:00,38.1,21.1,30.44,ESE,112,0.0,0.0,50,0.00,,---,0.00,VWS V14.01,2013-03-26 14:47:00,
2013-03-26 09:52:00,38.7,21.2,30.44,ESE,112,0.0,0.0,49,0.00,,---,0.00,VWS V14.01,2013-03-26 14:52:00,
2013-03-26 09:57:00,38.5,20.0,30.44,ESE,112,0.0,2.0,47,0.00,,---,0.00,VWS V14.01,2013-03-26 14:57:00,
2013-03-26 10:02:00,39.4,20.8,30.44,SW,225,0.0,1.3,47,0.00,,---,0.00,VWS V14.01,2013-03-26 15:02:00,
2013-03-26 10:07:00,39.0,19.5,30.44,WSW,248,0.0,2.5,45,0.00,,---,0.00,VWS V14.01,2013-03-26 15:07:00,
2013-03-26 10:12:00,39.7,19.6,30.44,South,180,0.0,2.2,44,0.00,,---,0.00,VWS V14.01,2013-03-26 15:12:00,
2013-03-26 10:17:00,39.0,18.4,30.44,SE,135,4.0,4.7,43,0.00,,---,0.00,VWS V14.01,2013-03-26 15:17:00,
2013-03-26 10:22:00,38.5,17.9,30.44,South,180,3.1,3.1,43,0.00,,---,0.00,VWS V14.01,2013-03-26 15:22:00,
2013-03-26 10:27:00,38.5,18.5,30.44,SE,135,3.1,3.8,44,0.00,,---,0.00,VWS V14.01,2013-03-26 15:27:00,
2013-03-26 10:32:00,39.4,18.8,30.44,SSW,202,0.0,3.4,43,0.00,,---,0.00,VWS V14.01,2013-03-26 15:32:00,
2013-03-26 10:37:00,40.3,19.0,30.44,South,180,0.9,1.6,42,0.00,,---,0.00,VWS V14.01,2013-03-26 15:37:00,
2013-03-26 10:42:00,40.8,19.5,30.44,SW,225,1.3,4.0,42,0.00,,---,0.00,VWS V14.01,2013-03-26 15:42:00,
2013-03-26 10:47:00,42.3,20.8,30.44,NNW,338,0.0,2.2,42,0.00,,---,0.00,VWS V14.01,2013-03-26 15:47:00,
2013-03-26 10:52:00,41.9,19.4,30.44,SSW,202,6.3,6.3,40,0.00,,---,0.00,VWS V14.01,2013-03-26 15:52:00,
2013-03-26 10:57:00,41.5,19.0,30.41,West,270,3.1,3.1,40,0.00,,---,0.00,VWS V14.01,2013-03-26 15:57:00,
2013-03-26 11:02:00,42.1,19.5,30.41,South,180,2.9,2.9,40,0.00,,---,0.00,VWS V14.01,2013-03-26 16:02:00,
2013-03-26 11:07:00,42.1,19.5,30.41,WNW,292,4.9,6.5,40,0.00,,---,0.00,VWS V14.01,2013-03-26 16:07:00,
2013-03-26 11:12:00,43.2,20.5,30.44,NNW,338,2.9,2.9,40,0.00,,---,0.00,VWS V14.01,2013-03-26 16:12:00,
2013-03-26 11:17:00,44.1,20.7,30.44,SSW,202,0.0,4.9,39,0.00,,---,0.00,VWS V14.01,2013-03-26 16:17:00,
2013-03-26 11:22:00,43.7,20.4,30.44,SSW,202,0.9,5.6,39,0.00,,---,0.00,VWS V14.01,2013-03-26 16:22:00,
2013-03-26 11:27:00,42.1,19.5,30.44,South,180,3.4,3.8,40,0.00,,---,0.00,VWS V14.01,2013-03-26 16:27:00,
2013-03-26 11:32:00,41.7,19.2,30.44,South,180,5.4,5.4,40,0.00,,---,0.00,VWS V14.01,2013-03-26 16:32:00,
2013-03-26 11:37:00,44.4,21.6,30.44,South,180,0.0,1.1,40,0.00,,---,0.00,VWS V14.01,2013-03-26 16:37:00,
2013-03-26 11:42:00,44.8,21.4,30.41,West,270,3.4,3.4,39,0.00,,---,0.00,VWS V14.01,2013-03-26 16:42:00,
2013-03-26 11:47:00,46.8,22.5,30.41,NW,315,0.0,1.6,38,0.00,,---,0.00,VWS V14.01,2013-03-26 16:47:00,
2013-03-26 11:52:00,46.4,22.2,30.41,South,180,0.0,2.5,38,0.00,,---,0.00,VWS V14.01,2013-03-26 16:52:00,
2013-03-26 11:57:00,45.9,21.7,30.41,South,180,4.0,4.9,38,0.00,,---,0.00,VWS V14.01,2013-03-26 16:57:00,
2013-03-26 12:02:00,45.3,21.2,30.41,West,270,3.4,5.4,38,0.00,,---,0.00,VWS V14.01,2013-03-26 17:02:00,
2013-03-26 12:07:00,47.5,23.2,30.41,NE,45,0.0,2.2,38,0.00,,---,0.00,VWS V14.01,2013-03-26 17:07:00,
2013-03-26 12:12:00,45.9,21.7,30.39,South,180,0.0,0.0,38,0.00,,---,0.00,VWS V14.01,2013-03-26 17:12:00,
2013-03-26 12:17:00,47.3,23.0,30.39,West,270,4.3,4.3,38,0.00,,---,0.00,VWS V14.01,2013-03-26 17:17:00,
2013-03-26 12:22:00,46.4,21.6,30.39,SSW,202,3.8,3.8,37,0.00,,---,0.00,VWS V14.01,2013-03-26 17:22:00,
2013-03-26 12:27:00,46.4,22.2,30.39,WNW,292,6.0,6.0,38,0.00,,---,0.00,VWS V14.01,2013-03-26 17:27:00,
2013-03-26 12:32:00,46.9,22.7,30.39,SSE,158,2.9,3.4,38,0.00,,---,0.00,VWS V14.01,2013-03-26 17:32:00,
2013-03-26 12:37:00,47.3,23.0,30.39,West,270,2.7,2.7,38,0.00,,---,0.00,VWS V14.01,2013-03-26 17:37:00,
2013-03-26 12:42:00,46.4,21.6,30.39,SW,225,6.5,6.5,37,0.00,,---,0.00,VWS V14.01,2013-03-26 17:42:00,
2013-03-26 12:47:00,45.9,21.7,30.39,South,180,4.3,4.3,38,0.00,,---,0.00,VWS V14.01,2013-03-26 17:47:00,
2013-03-26 12:52:00,46.6,22.4,30.39,South,180,4.0,4.0,38,0.00,,---,0.00,VWS V14.01,2013-03-26 17:52:00,
2013-03-26 12:58:00,46.8,22.5,30.36,SSW,202,2.0,2.0,38,0.00,,---,0.00,VWS V14.01,2013-03-26 17:58:00,
2013-03-26 13:03:00,47.8,22.9,30.36,NW,315,3.1,4.9,37,0.00,,---,0.00,VWS V14.01,2013-03-26 18:03:00,
2013-03-26 13:09:00,49.1,24.0,30.36,WSW,248,1.3,4.3,37,0.00,,---,0.00,VWS V14.01,2013-03-26 18:09:00,
2013-03-26 13:14:00,49.1,24.0,30.39,ESE,112,4.9,4.9,37,0.00,,---,0.00,VWS V14.01,2013-03-26 18:14:00,
2013-03-26 13:19:00,49.1,24.0,30.39,NNE,22,1.3,3.8,37,0.00,,---,0.00,VWS V14.01,2013-03-26 18:19:00,
2013-03-26 13:24:00,49.3,24.1,30.39,WNW,292,5.4,5.4,37,0.00,,---,0.00,VWS V14.01,2013-03-26 18:24:00,
2013-03-26 13:29:00,49.5,24.3,30.41,West,270,3.1,4.0,37,0.00,,---,0.00,VWS V14.01,2013-03-26 18:29:00,
2013-03-26 13:34:00,51.1,25.1,30.41,NW,315,0.0,4.0,36,0.00,,---,0.00,VWS V14.01,2013-03-26 18:34:00,
2013-03-26 13:39:00,50.2,24.3,30.41,West,270,1.3,3.1,36,0.00,,---,0.00,VWS V14.01,2013-03-26 18:39:00,
2013-03-26 13:44:00,50.2,24.3,30.39,South,180,2.7,3.8,36,0.00,,---,0.00,VWS V14.01,2013-03-26 18:44:00,
2013-03-26 13:49:00,51.4,25.4,30.39,South,180,2.7,4.3,36,0.00,,---,0.00,VWS V14.01,2013-03-26 18:49:00,
2013-03-26 13:54:00,51.4,25.4,30.39,SE,135,2.9,3.8,36,0.00,,---,0.00,VWS V14.01,2013-03-26 18:54:00,
2013-03-26 13:59:00,48.2,23.2,30.36,SSW,202,1.1,2.2,37,0.00,,---,0.00,VWS V14.01,2013-03-26 18:59:00,
2013-03-26 14:04:00,49.6,24.5,30.36,South,180,4.7,4.7,37,0.00,,---,0.00,VWS V14.01,2013-03-26 19:04:00,
2013-03-26 14:09:00,51.4,25.4,30.36,SW,225,0.0,3.6,36,0.00,,---,0.00,VWS V14.01,2013-03-26 19:09:00,
2013-03-26 14:14:00,50.7,23.4,30.36,SSE,158,2.0,2.9,34,0.00,,---,0.00,VWS V14.01,2013-03-26 19:14:00,
2013-03-26 14:19:00,51.8,25.0,30.36,SE,135,4.3,4.3,35,0.00,,---,0.00,VWS V14.01,2013-03-26 19:19:00,
2013-03-26 14:24:00,49.8,24.0,30.36,SE,135,3.8,5.4,36,0.00,,---,0.00,VWS V14.01,2013-03-26 19:24:00,
2013-03-26 14:29:00,49.8,23.3,30.36,South,180,2.0,3.8,35,0.00,,---,0.00,VWS V14.01,2013-03-26 19:29:00,
2013-03-26 14:34:00,49.1,22.6,30.36,SSW,202,5.4,6.9,35,0.00,,---,0.00,VWS V14.01,2013-03-26 19:34:00,
2013-03-26 14:39:00,48.9,23.2,30.36,SSE,158,4.7,5.8,36,0.00,,---,0.00,VWS V14.01,2013-03-26 19:39:00,
2013-03-26 14:44:00,49.1,22.6,30.33,ESE,112,5.4,8.7,35,0.00,,---,0.00,VWS V14.01,2013-03-26 19:44:00,
2013-03-26 14:49:00,50.5,24.6,30.33,South,180,4.3,4.3,36,0.00,,---,0.00,VWS V14.01,2013-03-26 19:49:00,
2013-03-26 14:54:00,48.4,22.0,30.33,SSW,202,6.3,7.6,35,0.00,,---,0.00,VWS V14.01,2013-03-26 19:54:00,
2013-03-26 14:59:00,49.3,23.5,30.33,SSW,202,2.2,3.6,36,0.00,,---,0.00,VWS V14.01,2013-03-26 19:59:00,
2013-03-26 15:04:00,50.0,24.1,30.33,SE,135,5.6,7.4,36,0.00,,---,0.00,VWS V14.01,2013-03-26 20:04:00,
2013-03-26 15:09:00,50.2,22.9,30.33,SSW,202,7.6,7.6,34,0.00,,---,0.00,VWS V14.01,2013-03-26 20:09:00,
2013-03-26 15:14:00,51.1,25.1,30.33,SSW,202,1.1,2.2,36,0.00,,---,0.00,VWS V14.01,2013-03-26 20:14:00,
2013-03-26 15:19:00,51.3,23.9,30.33,SE,135,3.4,3.6,34,0.00,,---,0.00,VWS V14.01,2013-03-26 20:19:00,
2013-03-26 15:24:00,50.5,24.6,30.33,SSW,202,10.1,10.1,36,0.00,,---,0.00,VWS V14.01,2013-03-26 20:24:00,
2013-03-26 15:29:00,49.8,24.0,30.33,SSE,158,3.1,4.0,36,0.00,,---,0.00,VWS V14.01,2013-03-26 20:29:00,
2013-03-26 15:34:00,50.0,23.4,30.33,SE,135,5.6,5.8,35,0.00,,---,0.00,VWS V14.01,2013-03-26 20:34:00,
2013-03-26 15:39:00,50.4,24.4,30.33,South,180,2.7,5.6,36,0.00,,---,0.00,VWS V14.01,2013-03-26 20:39:00,
2013-03-26 15:44:00,50.7,24.8,30.33,South,180,1.6,3.6,36,0.00,,---,0.00,VWS V14.01,2013-03-26 20:44:00,
2013-03-26 15:49:00,49.5,23.6,30.33,SSE,158,10.3,10.3,36,0.00,,---,0.00,VWS V14.01,2013-03-26 20:49:00,
2013-03-26 15:54:00,50.5,24.6,30.33,SSW,202,6.5,7.2,36,0.00,,---,0.00,VWS V14.01,2013-03-26 20:54:00,
2013-03-26 15:59:00,49.5,23.0,30.33,South,180,3.6,5.8,35,0.00,,---,0.00,VWS V14.01,2013-03-26 20:59:00,
2013-03-26 16:05:00,50.4,24.4,30.33,SW,225,6.0,6.0,36,0.00,,---,0.00,VWS V14.01,2013-03-26 21:05:00,
2013-03-26 16:10:00,50.9,24.2,30.33,SSW,202,4.0,6.0,35,0.00,,---,0.00,VWS V14.01,2013-03-26 21:10:00,
2013-03-26 16:15:00,51.6,25.6,30.33,SSE,158,2.9,5.4,36,0.00,,---,0.00,VWS V14.01,2013-03-26 21:15:00,
2013-03-26 16:20:00,50.5,23.9,30.33,South,180,4.9,6.5,35,0.00,,---,0.00,VWS V14.01,2013-03-26 21:20:00,
2013-03-26 16:25:00,50.2,23.6,30.33,SSE,158,4.0,8.1,35,0.00,,---,0.00,VWS V14.01,2013-03-26 21:25:00,
2013-03-26 16:30:00,50.7,24.8,30.30,South,180,3.4,8.7,36,0.00,,---,0.00,VWS V14.01,2013-03-26 21:30:00,
2013-03-26 16:35:00,50.9,23.5,30.30,South,180,2.9,5.4,34,0.00,,---,0.00,VWS V14.01,2013-03-26 21:35:00,
2013-03-26 16:40:00,50.4,23.1,30.30,SSE,158,5.4,5.4,34,0.00,,---,0.00,VWS V14.01,2013-03-26 21:40:00,
2013-03-26 16:45:00,50.7,23.4,30.30,South,180,2.5,6.0,34,0.00,,---,0.00,VWS V14.01,2013-03-26 21:45:00,
2013-03-26 16:51:00,51.1,23.7,30.30,SW,225,4.3,7.6,34,0.00,,---,0.00,VWS V14.01,2013-03-26 21:51:00,
2013-03-26 16:56:00,51.1,24.4,30.27,SSE,158,3.6,5.4,35,0.00,,---,0.00,VWS V14.01,2013-03-26 21:56:00,
2013-03-26 17:01:00,51.3,24.6,30.27,SSW,202,9.8,9.8,35,0.00,,---,0.00,VWS V14.01,2013-03-26 22:01:00,
2013-03-26 17:06:00,50.9,24.2,30.27,South,180,1.6,5.4,35,0.00,,---,0.00,VWS V14.01,2013-03-26 22:06:00,
2013-03-26 17:11:00,50.7,24.1,30.27,South,180,7.4,7.6,35,0.00,,---,0.00,VWS V14.01,2013-03-26 22:11:00,
2013-03-26 17:17:00,50.4,23.1,30.27,SSE,158,2.7,3.4,34,0.00,,---,0.00,VWS V14.01,2013-03-26 22:17:00,
2013-03-26 17:22:00,50.7,24.1,30.27,South,180,4.3,7.2,35,0.00,,---,0.00,VWS V14.01,2013-03-26 22:22:00,
2013-03-26 17:27:00,50.4,23.8,30.27,South,180,6.0,6.0,35,0.00,,---,0.00,VWS V14.01,2013-03-26 22:27:00,
2013-03-26 17:32:00,50.0,22.8,30.27,SSW,202,4.3,8.5,34,0.00,,---,0.00,VWS V14.01,2013-03-26 22:32:00,
2013-03-26 17:37:00,50.2,24.3,30.27,SSE,158,4.0,7.2,36,0.00,,---,0.00,VWS V14.01,2013-03-26 22:37:00,
2013-03-26 17:42:00,50.2,24.3,30.27,South,180,2.5,5.8,36,0.00,,---,0.00,VWS V14.01,2013-03-26 22:42:00,
2013-03-26 17:47:00,50.2,24.3,30.27,SE,135,6.0,12.1,36,0.00,,---,0.00,VWS V14.01,2013-03-26 22:47:00,
2013-03-26 17:52:00,50.2,23.6,30.27,SSE,158,10.5,10.5,35,0.00,,---,0.00,VWS V14.01,2013-03-26 22:52:00,
2013-03-26 17:58:00,50.2,23.6,30.27,SSE,158,7.4,8.1,35,0.00,,---,0.00,VWS V14.01,2013-03-26 22:58:00,
2013-03-26 18:03:00,49.5,23.0,30.27,South,180,3.6,7.4,35,0.00,,---,0.00,VWS V14.01,2013-03-26 23:03:00,
2013-03-26 18:08:00,49.5,23.6,30.27,SSW,202,7.4,7.6,36,0.00,,---,0.00,VWS V14.01,2013-03-26 23:08:00,
2013-03-26 18:13:00,50.2,24.3,30.27,SSW,202,2.0,5.8,36,0.00,,---,0.00,VWS V14.01,2013-03-26 23:13:00,
2013-03-26 18:18:00,49.8,23.3,30.27,SSW,202,3.4,7.6,35,0.00,,---,0.00,VWS V14.01,2013-03-26 23:18:00,
2013-03-26 18:23:00,49.3,22.1,30.27,South,180,6.5,10.1,34,0.00,,---,0.00,VWS V14.01,2013-03-26 23:23:00,
2013-03-26 18:28:00,49.5,23.0,30.27,SSW,202,6.3,6.3,35,0.00,,---,0.00,VWS V14.01,2013-03-26 23:28:00,
2013-03-26 18:33:00,49.1,22.6,30.27,SSW,202,5.4,6.3,35,0.00,,---,0.00,VWS V14.01,2013-03-26 23:33:00,
2013-03-26 18:38:00,48.9,22.5,30.27,SW,225,6.0,6.3,35,0.00,,---,0.00,VWS V14.01,2013-03-26 23:38:00,
2013-03-26 18:44:00,48.6,22.8,30.27,South,180,2.7,6.9,36,0.00,,---,0.00,VWS V14.01,2013-03-26 23:44:00,
2013-03-26 18:49:00,48.4,22.7,30.27,SSW,202,5.6,9.4,36,0.00,,---,0.00,VWS V14.01,2013-03-26 23:49:00,
2013-03-26 18:54:00,48.0,23.0,30.27,SSW,202,2.7,7.2,37,0.00,,---,0.00,VWS V14.01,2013-03-26 23:54:00,
2013-03-26 18:59:00,47.7,22.7,30.27,South,180,5.6,8.1,37,0.00,,---,0.00,VWS V14.01,2013-03-26 23:59:00,
2013-03-26 19:05:00,47.5,22.5,30.27,SSE,158,2.9,5.4,37,0.00,,---,0.00,VWS V14.01,2013-03-27 00:05:00,
2013-03-26 19:10:00,47.3,22.4,30.27,South,180,4.3,4.3,37,0.00,,---,0.00,VWS V14.01,2013-03-27 00:10:00,
2013-03-26 19:15:00,46.9,22.0,30.27,South,180,5.4,6.0,37,0.00,,---,0.00,VWS V14.01,2013-03-27 00:15:00,
2013-03-26 19:20:00,46.8,21.9,30.27,SSW,202,6.3,6.3,37,0.00,,---,0.00,VWS V14.01,2013-03-27 00:20:00,
2013-03-26 19:25:00,46.4,21.6,30.27,SSW,202,1.3,3.8,37,0.00,,---,0.00,VWS V14.01,2013-03-27 00:25:00,
2013-03-26 19:30:00,46.0,21.9,30.27,South,180,3.8,6.5,38,0.00,,---,0.00,VWS V14.01,2013-03-27 00:30:00,
2013-03-26 19:35:00,45.5,21.4,30.27,SSE,158,2.9,4.9,38,0.00,,---,0.00,VWS V14.01,2013-03-27 00:35:00,
2013-03-26 19:40:00,45.0,20.9,30.27,SSE,158,1.1,3.4,38,0.00,,---,0.00,VWS V14.01,2013-03-27 00:40:00,
2013-03-26 19:45:00,44.4,21.0,30.27,SE,135,2.2,2.2,39,0.00,,---,0.00,VWS V14.01,2013-03-27 00:45:00,
2013-03-26 19:50:00,44.1,20.7,30.27,SSE,158,1.6,2.9,39,0.00,,---,0.00,VWS V14.01,2013-03-27 00:50:00,
2013-03-26 19:55:00,43.5,20.2,30.27,SE,135,1.6,5.8,39,0.00,,---,0.00,VWS V14.01,2013-03-27 00:55:00,
2013-03-26 20:00:00,43.3,20.6,30.27,SSE,158,4.7,4.9,40,0.00,,---,0.00,VWS V14.01,2013-03-27 01:00:00,
2013-03-26 20:05:00,43.0,20.3,30.27,ESE,112,3.1,5.4,40,0.00,,---,0.00,VWS V14.01,2013-03-27 01:05:00,
2013-03-26 20:10:00,42.8,20.2,30.27,SSE,158,3.4,3.6,40,0.00,,---,0.00,VWS V14.01,2013-03-27 01:10:00,
2013-03-26 20:15:00,42.6,20.6,30.24,SE,135,2.5,3.8,41,0.00,,---,0.00,VWS V14.01,2013-03-27 01:15:00,
2013-03-26 20:20:00,42.4,20.4,30.24,SSW,202,5.4,6.5,41,0.00,,---,0.00,VWS V14.01,2013-03-27 01:20:00,
2013-03-26 20:25:00,42.4,20.4,30.24,SE,135,3.8,5.4,41,0.00,,---,0.00,VWS V14.01,2013-03-27 01:25:00,
2013-03-26 20:30:00,42.3,20.3,30.27,SE,135,4.9,4.9,41,0.00,,---,0.00,VWS V14.01,2013-03-27 01:30:00,
2013-03-26 20:35:00,42.1,20.1,30.27,SSE,158,4.0,4.0,41,0.00,,---,0.00,VWS V14.01,2013-03-27 01:35:00,
2013-03-26 20:40:00,42.1,20.1,30.27,SSE,158,3.1,7.8,41,0.00,,---,0.00,VWS V14.01,2013-03-27 01:40:00,
2013-03-26 20:45:00,41.9,19.9,30.27,SE,135,2.7,3.6,41,0.00,,---,0.00,VWS V14.01,2013-03-27 01:45:00,
2013-03-26 20:50:00,41.5,19.6,30.27,SE,135,3.6,3.6,41,0.00,,---,0.00,VWS V14.01,2013-03-27 01:50:00,
2013-03-26 20:55:00,41.7,19.8,30.27,SSE,158,3.8,6.0,41,0.00,,---,0.00,VWS V14.01,2013-03-27 01:55:00,
2013-03-26 21:00:00,41.7,19.8,30.24,SE,135,7.4,7.8,41,0.00,,---,0.00,VWS V14.01,2013-03-27 02:00:00,
2013-03-26 21:05:00,41.7,19.8,30.24,SSE,158,5.8,9.6,41,0.00,,---,0.00,VWS V14.01,2013-03-27 02:05:00,
2013-03-26 21:10:00,41.7,19.8,30.24,SE,135,4.5,5.6,41,0.00,,---,0.00,VWS V14.01,2013-03-27 02:10:00,
2013-03-26 21:15:00,41.5,19.6,30.24,ESE,112,1.3,6.5,41,0.00,,---,0.00,VWS V14.01,2013-03-27 02:15:00,
2013-03-26 21:20:00,41.5,19.6,30.24,SSE,158,4.7,6.0,41,0.00,,---,0.00,VWS V14.01,2013-03-27 02:20:00,
2013-03-26 21:25:00,41.5,19.6,30.24,SE,135,4.7,9.8,41,0.00,,---,0.00,VWS V14.01,2013-03-27 02:25:00,
2013-03-26 21:30:00,41.2,19.3,30.24,ESE,112,4.0,6.5,41,0.00,,---,0.00,VWS V14.01,2013-03-27 02:30:00,
2013-03-26 21:35:00,41.2,19.3,30.24,ESE,112,3.4,8.1,41,0.00,,---,0.00,VWS V14.01,2013-03-27 02:35:00,
2013-03-26 21:40:00,41.2,19.3,30.24,SE,135,5.4,7.4,41,0.00,,---,0.00,VWS V14.01,2013-03-27 02:40:00,
2013-03-26 21:45:00,41.2,19.3,30.24,SE,135,2.7,8.1,41,0.00,,---,0.00,VWS V14.01,2013-03-27 02:45:00,
2013-03-26 21:50:00,41.2,19.3,30.24,SSE,158,5.8,5.8,41,0.00,,---,0.00,VWS V14.01,2013-03-27 02:50:00,
2013-03-26 21:55:00,41.2,19.3,30.24,SE,135,4.3,6.5,41,0.00,,---,0.00,VWS V14.01,2013-03-27 02:55:00,
2013-03-26 22:00:00,41.0,19.1,30.24,South,180,2.7,6.3,41,0.00,,---,0.00,VWS V14.01,2013-03-27 03:00:00,
2013-03-26 22:05:00,41.0,19.1,30.24,SSE,158,5.4,6.5,41,0.00,,---,0.00,VWS V14.01,2013-03-27 03:05:00,
2013-03-26 22:10:00,40.8,19.0,30.24,SSE,158,4.0,6.0,41,0.00,,---,0.00,VWS V14.01,2013-03-27 03:10:00,
2013-03-26 22:15:00,40.6,18.8,30.24,SE,135,5.6,5.6,41,0.00,,---,0.00,VWS V14.01,2013-03-27 03:15:00,
2013-03-26 22:20:00,40.6,18.8,30.24,SE,135,2.7,5.8,41,0.00,,---,0.00,VWS V14.01,2013-03-27 03:20:00,
2013-03-26 22:25:00,40.6,18.8,30.24,ESE,112,10.1,10.1,41,0.00,,---,0.00,VWS V14.01,2013-03-27 03:25:00,
2013-03-26 22:30:00,40.5,18.6,30.24,SE,135,3.1,4.3,41,0.00,,---,0.00,VWS V14.01,2013-03-27 03:30:00,
2013-03-26 22:35:00,40.5,18.6,30.24,SSE,158,4.0,5.8,41,0.00,,---,0.00,VWS V14.01,2013-03-27 03:35:00,
2013-03-26 22:40:00,40.5,18.6,30.24,South,180,4.5,6.9,41,0.00,,---,0.00,VWS V14.01,2013-03-27 03:40:00,
2013-03-26 22:45:00,40.5,18.6,30.24,South,180,5.4,8.7,41,0.00,,---,0.00,VWS V14.01,2013-03-27 03:45:00,
2013-03-26 22:50:00,40.5,18.6,30.24,SSE,158,2.7,5.8,41,0.00,,---,0.00,VWS V14.01,2013-03-27 03:50:00,
2013-03-26 22:55:00,40.3,17.9,30.24,South,180,8.7,11.0,40,0.00,,---,0.00,VWS V14.01,2013-03-27 03:55:00,
2013-03-26 23:00:00,40.3,17.9,30.24,SSE,158,10.5,10.5,40,0.00,,---,0.00,VWS V14.01,2013-03-27 04:00:00,
2013-03-26 23:02:00,40.3,17.9,30.24,SE,135,5.4,7.8,40,0.00,,---,0.00,VWS V14.01,2013-03-27 04:02:00,
2013-03-26 23:04:00,40.3,17.9,30.24,SSE,158,7.6,7.6,40,0.00,,---,0.00,VWS V14.01,2013-03-27 04:04:00,
2013-03-26 23:09:00,40.3,17.9,30.24,SE,135,6.0,8.5,40,0.00,,---,0.00,VWS V14.01,2013-03-27 04:09:00,
2013-03-26 23:14:00,40.3,17.9,30.24,SSE,158,2.9,9.6,40,0.00,,---,0.00,VWS V14.01,2013-03-27 04:14:00,
2013-03-26 23:19:00,40.1,17.7,30.24,SSE,158,2.0,4.7,40,0.00,,---,0.00,VWS V14.01,2013-03-27 04:19:00,
2013-03-26 23:24:00,39.9,17.6,30.24,South,180,4.9,5.4,40,0.00,,---,0.00,VWS V14.01,2013-03-27 04:24:00,
2013-03-26 23:29:00,39.9,17.6,30.24,SE,135,3.4,10.5,40,0.00,,---,0.00,VWS V14.01,2013-03-27 04:29:00,
2013-03-26 23:34:00,39.9,17.6,30.24,ESE,112,2.7,7.6,40,0.00,,---,0.00,VWS V14.01,2013-03-27 04:34:00,
2013-03-26 23:39:00,39.9,17.6,30.24,SSW,202,6.3,6.3,40,0.00,,---,0.00,VWS V14.01,2013-03-27 04:39:00,
2013-03-26 23:44:00,39.9,17.6,30.24,ESE,112,4.3,7.4,40,0.00,,---,0.00,VWS V14.01,2013-03-27 04:44:00,
2013-03-26 23:49:00,39.9,17.6,30.24,SSE,158,6.3,7.8,40,0.00,,---,0.00,VWS V14.01,2013-03-27 04:49:00,
2013-03-26 23:54:00,39.6,17.2,30.24,SSE,158,4.9,9.6,40,0.00,,---,0.00,VWS V14.01,2013-03-27 04:54:00,
2013-03-26 23:59:00,39.4,17.1,30.24,SSE,158,2.9,5.6,40,0.00,,---,0.00,VWS V14.01,2013-03-27 04:59:00,